Wind_Speed
46 50 47 39 42 45 48 51 53 47 38 48 52 55 50 40 37 36 35 31 27 28 28 32 33 31 28 30 33 35 36 37 37 36 35 34 35 35 33 33 33 34 36 35
47 52 42 43 44 47 50 50 51 49 44 51 54 56 52 46 38 32 33 30 29 32 32 33 34 34 32 33 33 34 37 38 36 37 36 34 35 34 34 35 37 39 39 37
49 50 48 48 48 48 47 50 49 54 52 52 54 58 47 40 38 35 33 33 33 34 36 35 35 37 37 36 38 37 36 37 36 37 36 36 36 36 37 39 41 42 41 41
50 44 45 44 46 40 51 43 51 54 56 58 54 56 46 40 42 38 38 33 30 34 34 34 35 38 39 40 39 39 40 42 38 39 39 39 40 39 41 43 42 41 41 43
47 47 48 50 46 48 52 50 51 53 56 59 61 62 55 46 41 40 31 34 32 28 31 34 36 39 39 39 39 38 36 39 42 43 43 42 41 41 43 42 42 43 44 46
47 46 49 50 51 50 50 53 49 51 55 62 58 57 48 53 48 43 44 39 41 35 32 34 35 36 37 39 41 43 43 44 46 46 44 42 42 44 46 46 44 45 46 50
52 54 53 52 52 53 48 52 58 62 60 62 61 57 52 55 58 55 52 48 44 44 46 42 38 36 38 40 43 46 46 47 47 43 40 41 44 47 49 49 49 48 49 53
66 58 56 55 54 57 57 58 61 65 65 64 62 66 54 60 59 61 59 57 61 51 47 50 42 38 36 30 35 40 40 42 46 46 48 48 50 52 54 54 54 54 49 50
65 68 63 62 60 59 61 66 60 63 65 69 70 69 62 61 62 65 62 58 60 62 49 48 45 33 38 41 36 36 44 47 47 47 49 51 54 56 59 58 55 53 50 50
65 67 68 60 59 62 58 56 60 66 71 72 72 74 69 65 65 67 65 62 61 61 55 24 25 34 45 51 44 44 46 54 56 51 53 57 59 58 60 61 58 55 53 51
76 76 69 68 59 51 52 55 59 64 72 75 77 70 59 63 64 63 61 60 60 52 50 50 53 53 54 50 45 44 52 52 56 57 54 56 58 59 59 60 62 60 55 51
75 77 79 79 73 69 61 54 50 56 59 68 75 78 45 56 57 58 62 58 56 56 50 47 53 55 56 49 49 57 59 58 62 62 58 57 57 57 59 60 56 55 54 55
73 67 75 79 75 76 72 71 65 61 57 68 72 72 55 58 57 48 53 50 48 50 48 51 55 55 57 53 57 62 64 61 64 63 64 63 62 56 52 54 55 52 50 48
71 75 76 78 77 75 80 74 73 74 67 72 79 88 67 50 50 54 70 67 68 58 52 49 50 52 55 59 59 63 65 65 67 67 64 65 62 48 48 50 51 51 55 56
67 72 73 76 71 64 65 71 72 76 83 91 90 90 83 82 81 83 81 80 69 70 64 53 52 56 56 57 57 56 55 54 59 63 67 67 60 45 47 50 53 55 57 57
64 63 60 66 65 62 68 62 58 63 64 68 70 75 62 67 64 62 81 73 62 58 72 75 71 66 65 58 56 54 56 57 59 60 62 63 67 58 54 57 57 56 59 60
66 67 67 65 52 56 65 62 63 57 55 67 68 60 58 52 52 59 74 84 89 78 83 95 92 84 72 77 71 74 73 73 73 67 65 65 63 64 67 64 60 60 60 63
67 68 69 78 78 82 80 76 69 64 54 59 61 61 60 61 57 62 70 75 79 80 78 79 82 84 80 78 79 80 81 80 76 77 78 73 73 70 70 61 59 61 64 64
68 69 73 77 83 90 86 81 61 65 71 66 64 76 85 85 79 73 69 69 67 66 73 77 78 82 85 82 81 82 81 81 80 80 82 86 84 77 73 69 59 64 68 66
66 68 73 77 82 85 82 83 86 91 91 90 97 93 98 94 77 73 59 61 61 63 66 76 78 77 76 66 59 64 68 70 74 80 85 85 79 75 68 61 62 65 66 70
77 75 73 75 81 83 85 84 77 72 77 76 77 82 71 74 87 83 88 76 74 69 65 71 75 73 68 57 60 66 73 78 83 85 85 77 67 67 67 64 63 65 64 66
76 75 75 74 74 78 76 81 83 89 82 75 87 86 76 70 70 72 69 70 76 68 64 65 71 70 70 65 71 84 90 85 85 86 83 76 73 77 76 73 68 65 65 64
70 68 72 74 77 74 70 74 77 83 87 98 107 108 107 104 99 91 92 91 80 72 69 68 69 67 70 76 74 70 74 74 75 77 74 81 79 75 72 73 69 68 69 70
65 61 67 68 66 70 71 72 75 80 84 88 92 95 101 102 98 95 91 81 94 88 86 87 87 88 79 76 74 72 68 71 71 73 75 75 74 73 75 72 71 72 74 74
62 63 63 64 63 60 62 65 70 76 83 88 91 93 94 94 90 92 96 101 101 99 99 96 101 97 93 81 87 86 80 80 76 77 75 80 80 80 79 78 73 72 71 73
56 58 57 62 55 53 57 56 59 65 71 76 82 85 89 96 100 99 100 102 103 101 98 96 99 105 99 95 96 86 77 83 86 81 83 88 90 84 85 80 81 75 68 74
Wind_Direction
274 276 282 291 282 284 284 285 289 293 295 286 283 281 283 280 277 283 281 281 284 281 278 275 274 275 276 275 277 277 274 272 272 274 276 274 267 266 270 275 281 281 283 283
275 276 286 281 279 279 282 288 287 289 291 280 282 284 286 288 287 284 282 280 278 277 275 277 277 276 272 276 274 271 267 267 269 275 271 269 266 268 273 279 281 285 285 282
271 275 274 276 277 276 278 280 288 285 284 280 285 283 286 290 291 291 287 283 282 276 275 274 270 269 269 274 271 271 267 265 270 272 272 271 271 273 274 279 283 284 284 284
267 270 271 271 271 278 271 278 275 278 281 284 280 286 283 292 290 288 283 278 276 278 276 271 269 268 268 272 271 272 269 266 269 270 270 269 268 273 276 279 280 281 283 283
273 270 270 267 269 270 273 271 271 274 277 278 277 285 297 294 291 288 284 285 279 272 274 272 272 273 275 273 270 268 265 263 266 267 268 269 272 274 274 275 278 279 282 283
274 272 270 272 271 272 274 273 273 271 271 271 274 281 288 292 288 287 287 286 290 283 269 268 272 274 276 272 271 266 261 259 262 264 266 269 270 271 273 276 280 282 284 283
274 274 272 271 272 275 274 273 272 271 268 269 275 273 277 279 290 290 288 285 283 284 285 277 278 269 266 268 268 269 268 265 263 263 266 271 271 273 276 279 279 279 282 280
275 267 271 274 275 274 269 267 268 270 273 276 272 272 276 283 284 286 288 289 288 286 281 281 290 287 266 267 263 262 262 261 260 264 270 272 274 275 277 279 280 283 279 275
279 275 281 279 276 273 272 270 272 267 268 270 272 271 271 275 277 280 282 284 288 293 296 295 285 262 267 285 279 256 253 259 261 263 268 271 270 272 274 276 278 279 275 272
278 278 277 279 282 281 279 275 271 269 267 266 266 266 267 271 275 274 280 288 291 289 294 269 260 257 263 278 277 262 254 256 263 268 267 267 270 273 274 277 278 276 273 271
280 278 272 274 276 282 277 277 273 267 262 265 265 258 263 267 272 281 285 283 281 281 282 277 281 282 277 280 259 262 258 266 261 273 271 270 271 273 275 276 277 277 275 269
277 282 282 273 273 271 273 275 272 273 273 273 269 267 253 263 267 268 272 279 284 286 292 279 277 278 277 267 251 268 272 269 272 276 274 271 273 277 277 277 275 273 273 273
278 272 274 276 274 273 273 274 273 272 269 269 267 266 265 255 256 274 282 279 283 286 284 281 271 268 269 263 253 258 265 270 276 278 279 276 275 271 271 273 272 268 268 275
271 272 272 274 281 282 279 275 268 270 262 266 271 282 274 257 260 270 278 277 278 277 279 275 272 267 263 264 265 266 266 273 276 276 276 278 272 268 264 264 263 271 275 279
271 274 276 280 283 280 277 273 269 269 271 271 279 279 280 280 274 272 279 276 276 271 272 268 262 271 270 267 269 270 273 272 272 271 274 275 264 267 267 265 272 273 275 275
270 270 276 285 285 281 277 273 267 272 275 274 278 276 275 274 272 268 272 276 270 262 265 267 265 262 258 259 265 263 265 269 267 268 267 264 264 263 275 273 275 275 273 276
267 262 265 263 267 266 258 273 277 274 269 283 275 273 267 258 252 257 264 266 271 264 264 273 275 273 260 266 260 264 265 269 273 267 261 264 263 263 270 275 280 277 277 276
275 271 269 264 260 264 268 275 276 277 274 269 265 260 264 269 261 267 273 268 267 270 271 270 274 275 264 260 257 258 262 268 270 271 270 271 273 273 275 275 273 275 277 278
276 273 270 266 262 264 266 265 263 265 265 265 262 266 272 273 272 277 272 266 266 262 261 259 259 260 259 257 260 262 262 264 263 268 270 269 271 272 269 274 275 273 274 276
271 269 266 267 267 268 267 264 265 267 272 272 277 274 275 277 269 272 265 264 273 268 266 259 256 255 256 254 258 265 268 271 271 272 271 269 270 270 270 272 271 273 276 278
278 275 270 268 266 265 266 267 265 267 266 264 257 257 251 252 264 263 271 269 275 271 258 254 252 251 249 251 268 276 277 271 267 268 269 268 269 271 274 272 275 276 276 277
279 277 276 275 270 267 268 265 263 260 255 247 260 263 264 264 262 264 264 271 268 249 241 247 244 246 243 258 270 271 269 263 263 267 267 268 271 272 273 272 271 270 274 275
278 278 278 275 276 275 272 268 265 264 261 259 263 265 266 266 267 264 268 265 245 247 242 255 259 249 244 265 271 263 253 253 257 264 267 267 268 270 269 272 273 270 271 273
276 278 275 276 274 273 272 268 266 268 266 265 265 265 265 267 268 267 261 255 247 257 266 269 269 273 260 265 258 259 250 253 255 259 262 265 267 270 270 269 269 269 271 272
284 282 281 275 276 274 270 270 268 267 264 263 264 266 266 266 264 260 256 258 259 258 260 266 268 267 262 253 252 254 243 246 252 252 256 262 263 263 263 264 266 264 263 267
287 283 283 286 289 286 281 275 273 269 268 268 268 267 267 267 264 263 262 260 261 262 262 262 261 263 263 256 251 234 232 239 246 251 256 258 258 255 258 261 259 256 257 258
Height
5810 5805 5806 5815 5808 5804 5798 5794 5791 5796 5802 5791 5785 5778 5782 5791 5791 5792 5791 5790 5788 5785 5786 5783 5780 5779 5779 5778 5777 5775 5773 5773 5772 5771 5770 5770 5769 5768 5770 5770 5769 5768 5767 5766
5802 5792 5804 5801 5799 5794 5790 5788 5784 5784 5789 5778 5771 5765 5771 5776 5781 5782 5779 5781 5778 5776 5775 5774 5771 5770 5769 5768 5767 5766 5764 5763 5763 5762 5760 5760 5760 5760 5760 5760 5758 5758 5757 5756
5789 5789 5789 5788 5787 5786 5784 5779 5779 5771 5771 5767 5760 5747 5760 5768 5767 5771 5770 5768 5767 5766 5765 5764 5761 5761 5760 5759 5757 5755 5754 5753 5753 5752 5751 5750 5750 5750 5750 5749 5748 5747 5746 5745
5774 5781 5779 5774 5770 5777 5766 5774 5766 5762 5758 5751 5754 5728 5748 5758 5758 5760 5758 5758 5756 5754 5753 5752 5750 5749 5748 5747 5746 5745 5743 5742 5742 5741 5740 5739 5738 5739 5739 5738 5737 5736 5735 5733
5768 5767 5767 5765 5765 5759 5757 5756 5754 5753 5749 5744 5736 5735 5729 5742 5743 5745 5749 5746 5746 5745 5744 5741 5740 5738 5737 5736 5734 5733 5733 5732 5731 5729 5727 5726 5726 5726 5726 5726 5726 5725 5723 5721
5756 5755 5753 5754 5752 5749 5746 5744 5742 5739 5736 5731 5732 5734 5721 5721 5727 5731 5732 5734 5732 5733 5730 5730 5729 5728 5726 5724 5723 5721 5720 5719 5718 5717 5716 5715 5715 5715 5714 5715 5715 5715 5712 5708
5740 5741 5740 5738 5737 5738 5736 5733 5725 5719 5717 5718 5724 5721 5719 5713 5712 5716 5717 5719 5720 5718 5716 5713 5715 5716 5716 5714 5711 5708 5708 5708 5706 5705 5704 5703 5703 5702 5701 5701 5701 5700 5700 5698
5722 5729 5728 5727 5724 5722 5719 5717 5712 5702 5707 5708 5711 5704 5710 5708 5706 5704 5698 5700 5700 5702 5703 5703 5698 5699 5699 5701 5701 5698 5697 5695 5693 5694 5694 5693 5692 5690 5688 5686 5685 5686 5684 5683
5701 5706 5707 5707 5708 5709 5707 5699 5701 5687 5690 5685 5692 5695 5698 5697 5694 5691 5688 5685 5683 5687 5686 5686 5687 5686 5685 5684 5686 5688 5685 5683 5683 5683 5683 5682 5680 5678 5676 5674 5673 5670 5668 5667
5683 5679 5698 5690 5688 5689 5686 5689 5683 5672 5664 5663 5673 5674 5680 5684 5681 5677 5677 5677 5675 5673 5672 5673 5673 5674 5672 5670 5672 5671 5671 5670 5670 5670 5668 5668 5666 5664 5662 5661 5660 5656 5654 5653
5663 5657 5677 5668 5674 5674 5669 5665 5663 5656 5649 5639 5639 5652 5677 5668 5667 5667 5665 5661 5658 5660 5660 5661 5660 5659 5655 5654 5653 5654 5654 5655 5656 5656 5655 5652 5650 5650 5648 5646 5645 5643 5640 5638
5648 5637 5632 5650 5654 5653 5651 5648 5647 5636 5635 5630 5620 5617 5663 5658 5652 5651 5649 5648 5641 5642 5643 5645 5643 5639 5637 5638 5640 5640 5636 5636 5637 5638 5637 5637 5635 5633 5632 5631 5629 5625 5624 5624
5634 5621 5611 5614 5631 5639 5629 5637 5630 5624 5616 5607 5605 5607 5641 5639 5637 5639 5636 5637 5632 5630 5625 5623 5621 5619 5616 5618 5619 5619 5620 5620 5616 5619 5618 5618 5616 5613 5613 5613 5611 5609 5609 5608
5611 5603 5599 5594 5604 5616 5607 5612 5614 5608 5595 5592 5587 5593 5617 5624 5623 5628 5620 5618 5612 5610 5607 5602 5600 5598 5596 5595 5599 5600 5602 5603 5601 5599 5598 5599 5598 5597 5595 5594 5595 5593 5592 5592
5592 5582 5581 5582 5586 5586 5586 5589 5591 5584 5582 5570 5575 5572 5581 5593 5599 5597 5595 5595 5591 5589 5585 5582 5578 5581 5580 5578 5577 5578 5580 5581 5581 5580 5580 5583 5582 5580 5577 5577 5577 5575 5574 5573
5579 5569 5567 5560 5564 5566 5557 5562 5564 5563 5562 5556 5555 5547 5560 5561 5564 5564 5568 5569 5566 5554 5554 5556 5557 5557 5558 5556 5555 5557 5559 5559 5559 5559 5562 5562 5564 5564 5560 5559 5558 5556 5555 5554
5556 5552 5551 5543 5545 5543 5529 5544 5543 5541 5544 5540 5528 5533 5528 5527 5534 5539 5540 5536 5533 5533 5535 5537 5537 5540 5539 5539 5538 5535 5538 5541 5543 5544 5544 5544 5543 5542 5542 5540 5539 5538 5537 5534
5536 5535 5532 5520 5525 5509 5521 5528 5523 5519 5522 5520 5508 5497 5500 5506 5516 5512 5513 5510 5511 5510 5511 5512 5512 5514 5514 5514 5513 5510 5515 5519 5522 5522 5521 5521 5519 5520 5521 5520 5519 5518 5517 5515
5517 5512 5504 5502 5499 5496 5503 5511 5499 5500 5503 5489 5480 5478 5476 5480 5487 5485 5484 5483 5485 5487 5486 5487 5489 5491 5489 5489 5489 5488 5493 5496 5499 5502 5500 5498 5497 5498 5498 5497 5497 5500 5500 5497
5497 5491 5483 5483 5474 5471 5476 5481 5481 5477 5472 5465 5454 5451 5449 5453 5452 5465 5463 5461 5464 5463 5463 5464 5465 5467 5468 5469 5468 5467 5470 5474 5476 5475 5475 5474 5476 5477 5476 5476 5479 5481 5482 5480
5465 5464 5460 5457 5451 5451 5454 5458 5461 5451 5447 5445 5433 5426 5422 5427 5427 5435 5436 5440 5437 5443 5442 5441 5443 5445 5449 5450 5448 5448 5447 5451 5452 5452 5453 5452 5452 5454 5456 5457 5460 5461 5462 5461
5436 5432 5432 5429 5428 5428 5438 5432 5431 5420 5419 5412 5410 5404 5405 5405 5408 5409 5417 5416 5420 5418 5416 5415 5420 5425 5429 5427 5428 5428 5426 5425 5426 5429 5431 5430 5430 5433 5435 5437 5441 5441 5441 5442
5411 5415 5407 5404 5400 5405 5409 5398 5397 5392 5392 5389 5381 5377 5375 5383 5385 5386 5390 5392 5395 5391 5392 5394 5397 5400 5404 5406 5402 5405 5406 5405 5405 5409 5409 5409 5411 5413 5416 5418 5419 5420 5421 5422
5396 5399 5384 5384 5387 5377 5377 5376 5371 5367 5363 5361 5357 5356 5354 5353 5356 5358 5361 5363 5366 5366 5366 5368 5371 5377 5383 5380 5379 5381 5382 5382 5385 5387 5389 5390 5392 5394 5395 5396 5398 5399 5401 5402
5380 5374 5369 5356 5361 5357 5357 5354 5348 5341 5340 5337 5333 5330 5327 5324 5330 5326 5333 5334 5333 5336 5338 5341 5340 5346 5354 5355 5357 5355 5356 5357 5359 5362 5366 5369 5370 5372 5373 5375 5377 5379 5379 5380
5363 5353 5345 5340 5341 5333 5334 5333 5325 5321 5318 5312 5309 5309 5306 5298 5299 5299 5303 5306 5306 5307 5307 5310 5313 5316 5322 5325 5331 5328 5323 5326 5331 5336 5340 5342 5343 5347 5350 5352 5355 5357 5356 5355